Date,TemperatureHighF,TemperatureAvgF,TemperatureLowF,DewpointHighF,DewpointAvgF,DewpointLowF,HumidityHigh,HumidityAvg,HumidityLow,PressureMaxIn,PressureMinIn,WindSpeedMaxMPH,WindSpeedAvgMPH,GustSpeedMaxMPH,PrecipitationSumIn
2013-8-1,78.1,67.9,60.9,66.7,61.9,57.3,95,82,61,29.98,29.79,17,2,20,0.01
2013-8-2,81.6,70.1,63.4,65.8,59.9,51.5,98,74,37,29.81,29.75,9,1,15,0.01
2013-8-3,78.3,68.5,60.7,61.9,56.9,52.1,97,69,44,29.83,29.75,18,2,18,0.01
2013-8-4,74.9,65.4,58.6,60.5,55.5,49.1,92,72,45,29.93,29.80,25,2,25,0.01
2013-8-5,74.9,64.1,52.9,53.2,46.8,34.1,81,56,27,30.03,29.93,20,2,20,0.00
2013-8-6,76.3,63.8,51.1,55.0,51.3,47.9,90,67,40,30.11,30.03,12,0,12,0.00
2013-8-7,79.0,69.2,56.7,62.1,58.4,52.9,89,70,49,30.11,29.96,21,3,22,0.00
2013-8-8,82.6,73.2,67.9,70.6,65.8,59.6,96,78,59,29.97,29.91,24,4,24,0.03
2013-8-9,79.8,72.9,67.4,73.7,70.8,65.4,98,93,71,29.92,29.74,21,0,21,0.02
2013-8-10,79.2,69.7,59.9,69.5,55.5,46.3,98,64,32,30.02,29.77,17,2,17,0.01
2013-8-11,79.4,66.8,55.3,60.9,54.7,50.6,89,67,41,30.07,29.95,11,0,11,0.01
2013-8-12,80.5,67.7,57.2,63.6,57.8,53.7,92,72,47,30.00,29.86,7,0,10,0.01
2013-8-13,73.2,65.7,62.1,65.4,62.1,58.5,99,89,70,29.87,29.65,17,2,17,0.00
2013-8-14,70.3,61.1,53.8,63.4,54.3,50.5,99,79,58,29.96,29.67,16,2,18,0.00
2013-8-15,76.5,62.6,50.8,55.1,50.8,47.3,92,68,39,30.07,29.96,12,1,12,0.00
2013-8-16,79.2,65.1,51.9,63.0,54.8,48.2,93,71,45,30.19,30.07,10,0,10,0.00
2013-8-17,78.8,65.9,56.0,62.7,58.2,55.1,98,79,48,30.29,30.19,15,1,15,0.00
2013-8-18,78.3,66.0,54.8,63.1,58.4,53.7,97,79,54,30.26,30.06,9,0,9,0.00
2013-8-19,87.6,70.1,58.0,67.9,60.0,56.6,96,73,41,30.06,29.93,10,0,10,0.00
2013-8-20,85.7,71.7,60.2,68.0,61.7,57.9,95,73,44,30.07,29.98,10,0,10,0.00
2013-8-21,88.4,74.5,62.3,69.4,63.4,58.8,92,71,39,30.12,29.96,14,1,14,0.00
2013-8-22,85.9,73.1,66.6,70.1,65.4,61.1,97,78,51,29.98,29.78,19,2,19,0.00
2013-8-23,73.7,65.5,54.5,63.9,55.1,49.9,90,71,46,30.18,29.87,23,2,23,0.00
2013-8-24,82.0,63.3,48.3,57.4,52.2,40.0,98,72,24,30.33,30.18,12,0,12,0.00
2013-8-25,80.3,64.9,50.7,65.1,54.6,45.1,95,72,37,30.37,30.10,11,1,11,0.14
2013-8-26,73.7,68.9,63.9,69.2,64.3,60.2,98,86,75,30.11,29.85,13,2,13,0.59
2013-8-27,86.5,73.8,67.6,71.7,68.7,66.4,99,86,52,29.90,29.84,5,0,12,0.59
2013-8-28,87.4,73.9,65.6,71.9,68.6,65.3,99,85,56,29.92,29.83,11,0,11,0.00
2013-8-29,82.0,71.5,66.0,69.6,65.7,62.1,98,84,52,30.04,29.92,10,0,10,0.00
2013-8-30,85.3,73.8,65.0,69.9,66.9,63.5,98,80,58,29.98,29.74,14,1,14,0.00
2013-8-31,76.3,71.6,68.8,72.6,69.3,66.9,98,92,81,29.78,29.72,9,1,10,0.74